Flag for Germany Weather past 2 weeks in Freiburg, Baden-Württemberg, Germany

Now
26 °F

Clear.


Feels Like: 26 °F
Forecast: 24 / 53 °F
Wind: No wind

Location: Freiburg

Current Time: Mar 6, 2015 at 5:55:35 AM

Latest Report: Mar 6, 2015 at 5:00 AM


Visibility: 16 mi

Pressure: 30.68 "Hg

Humidity: 89%

Dew point: 23 °F

Location of FreiburgLocation

Historic Weather in Freiburg — Graph

°F

Freiburg temperature yesterday

Maximum temperature yesterday: 45 °F (at 2:00 PM)
Minimum temperature yesterday: 29 °F (at 11:00 PM)
Average temperature yesterday: 37 °F

Past Weeks' High & Low Weather Summary

 TemperatureHumidityPressure
High56 °F (Feb 20, 5:00 PM)99% (Feb 22, 5:00 AM)30.70 "Hg (Feb 22, 5:00 AM)
Low25 °F (Feb 20, 2:00 AM)27% (Feb 20, 8:00 PM)29.56 "Hg (Feb 23, 5:00 PM)
Average41 °F75%30.06 "Hg
* Reported Feb 19 3:00 AM — Mar 6 3:00 AM, Freiburg, Weather by CustomWeather, © 2015

Note: Actual official high and low records may vary slightly from our data, if they occured in-between our weather recording intervals... More about our weather records

Advertising

Freiburg weather history for previous 24 hours

 ConditionsComfort  
Time TempWeatherWind HumidityBarometerVisibility
3:00 AM
Fri, Mar 6
25 °FPassing clouds.1 mph92%30.69 "Hg15 mi
2:00 AM28 °FPassing clouds.1 mph89%30.70 "Hg9 mi
12:00 AM28 °FPassing clouds.1 mph86%30.68 "Hg19 mi
11:00 PM
Thu, Mar 5
29 °FOvercast.1 mph81%30.69 "Hg22 mi
9:00 PM33 °FPassing clouds.1 mph76%30.66 "Hg28 mi
8:00 PM38 °FPassing clouds.1 mph62%30.66 "Hg31 mi
6:00 PM44 °FOvercast.3 mph48%30.61 "Hg43 mi
5:00 PM44 °FOvercast.6 mph47%30.61 "Hg34 mi
3:00 PM45 °FOvercast.5 mph45%30.60 "Hg22 mi
2:00 PM45 °FScattered clouds.5 mph48%30.62 "Hg22 mi
12:00 PM41 °FScattered clouds.3 mph55%30.64 "Hg37 mi
11:00 AM40 °FOvercast.5 mph63%30.65 "Hg25 mi
9:00 AM38 °FOvercast.1 mph77%30.64 "Hg17 mi
8:00 AM35 °FOvercast.No wind88%30.62 "Hg18 mi
6:00 AM34 °FOvercast.1 mph92%30.60 "Hg18 mi
5:00 AM34 °FOvercast.1 mph92%30.59 "Hg17 mi
Weather by CustomWeather, © 2015

See weather overviewHow to use our weather pages